GPS BIIR-4 (PRN 20)

Last updated on Nov. 18, 2019, 4:21 a.m. UTC

1 26360U 00025A   19320.82295916  .00000057  00000-0  00000+0 0  9992
2 26360  53.4112 118.0731 0049174 144.6132  28.1064  2.00568964143034
UTC
Height (km)
Latitude
Longitude
Inclination
Orbital Period
UTC large
Height (km)
Speed (km/s)
/
Latitude / Longitude
Inclination (degrees)
Orbital Period (minutes)
Azimuth
Elevation
Range (km)
Doppler Factor
iOS Compass Heading
iOS Angle

Next 30 passes for location: Hong Kong

Rise time Rise Azimuth (degrees) Set time Set Azimuth (degrees) Duration Max altitude (degrees)

No matching passes for this satellites